Weather History for Graham, TX

Change the Weather History Date:

Sunday, December 9, 2012

  Actual Average (KMWL) Record (KMWL)
Temperature  
Mean Temperature 44 °F -  
Max Temperature 53 °F 57 °F 75 °F (1996)
Min Temperature 35 °F 35 °F 10 °F (2005)
Degree Days  
Heating Degree Days 21    
Moisture  
Dew Point 38 °F    
Average Humidity 72    
Maximum Humidity 100    
Minimum Humidity 38    
Precipitation  
Precipitation 0.00 in - - ()
Sea Level Pressure  
Sea Level Pressure 29.90 in    
Wind  
Wind Speed 7 mph (NNW)    
Max Wind Speed 21 mph    
Max Gust Speed 30 mph    
Visibility 8 miles    
Events      
Averages and records for this station are not official NWS values.
T = Trace of Precipitation, MM = Missing Value Source: NWS Daily Summary

Daily Weather History Graph

Daily Weather History Graph

Search for Another Location

Airport:

Trip Planner

Search our weather history database for the weather conditions in past years. The results will help you decide how hot, cold, wet, or windy it might be!

Date:

Astronomy

Dec. 09, 2012 Rise Set
Actual Time 7:26 AM CST 5:27 PM CST
Civil Twilight 6:58 AM CST 5:54 PM CST
Nautical Twilight 6:28 AM CST 6:25 PM CST
Astronomical Twilight 5:57 AM CST 6:55 PM CST
Moon 3:10 AM CST (12/9) 2:27 PM CST (12/9)
Length of Visible Light 10h 55m
Length of Day
10h 01m
Waning Crescent, 18% of the Moon is Illuminated
Dec 9
Waning Crescent
Dec 13
New
Dec 19
First Quarter
Dec 28
Full
Jan 4
Last Quarter

Hourly Weather History & Observations

Time (CST) Temp. Windchill Dew Point Humidity Pressure Visibility Wind Dir Wind Speed Gust Speed Precip Events Conditions
12:15 AM 44.6 °F - 41.0 °F 87% 29.76 in 10.0 mi Calm Calm - N/A   Clear
12:35 AM 44.6 °F - 42.8 °F 93% 29.75 in 10.0 mi Calm Calm - N/A   Clear
12:55 AM 44.6 °F - 42.8 °F 93% 29.75 in 10.0 mi Calm Calm - N/A   Clear
1:15 AM 46.4 °F - 42.8 °F 87% 29.75 in 10.0 mi Calm Calm - N/A   Clear
1:35 AM 44.6 °F - 42.8 °F 93% 29.75 in 10.0 mi Calm Calm - N/A   Clear
1:55 AM 44.6 °F - 42.8 °F 93% 29.75 in 10.0 mi Calm Calm - N/A   Clear
2:15 AM 44.6 °F - 42.8 °F 93% 29.75 in 10.0 mi Calm Calm - N/A   Clear
2:55 AM 51.8 °F - 50.0 °F 94% 29.74 in 7.0 mi South 5.8 mph - N/A   Clear
3:15 AM 53.6 °F - 50.0 °F 88% 29.74 in 7.0 mi South 5.8 mph - N/A   Clear
3:35 AM 53.6 °F - 50.0 °F 88% 29.74 in 7.0 mi South 5.8 mph - N/A   Clear
3:55 AM 50.0 °F - 46.4 °F 87% 29.76 in 7.0 mi Calm Calm - N/A   Clear
4:15 AM 50.0 °F - 46.4 °F 87% 29.75 in 7.0 mi South 4.6 mph - N/A   Clear
4:35 AM 51.8 °F - 50.0 °F 94% 29.75 in 7.0 mi South 3.5 mph - N/A   Clear
4:55 AM 51.8 °F - 50.0 °F 94% 29.74 in 7.0 mi SSW 5.8 mph - N/A   Clear
5:15 AM 51.8 °F - 50.0 °F 94% 29.75 in 5.0 mi South 4.6 mph - N/A   Clear
5:35 AM 51.8 °F - 50.0 °F 94% 29.76 in 5.0 mi South 3.5 mph - N/A   Clear
5:55 AM 53.6 °F - 51.8 °F 94% 29.76 in 5.0 mi South 4.6 mph - N/A   Clear
6:15 AM 53.6 °F - 51.8 °F 94% 29.76 in 5.0 mi Calm Calm - N/A   Clear
6:35 AM 53.6 °F - 51.8 °F 94% 29.77 in 5.0 mi SSW 5.8 mph - N/A   Clear
6:55 AM 51.8 °F - 51.8 °F 100% 29.80 in 5.0 mi West 6.9 mph - N/A   Clear
7:15 AM 53.6 °F - 51.8 °F 94% 29.82 in 7.0 mi WNW 10.4 mph - N/A   Clear
7:35 AM 53.6 °F - 50.0 °F 88% 29.82 in 10.0 mi West 8.1 mph - N/A   Clear
7:55 AM 51.8 °F - 44.6 °F 76% 29.83 in 10.0 mi WNW 12.7 mph 17.3 mph N/A   Clear
8:15 AM 50.0 °F - 41.0 °F 71% 29.84 in 10.0 mi NW 13.8 mph 19.6 mph N/A   Clear
8:35 AM 46.4 °F 40.4 °F 39.2 °F 76% 29.86 in 10.0 mi NW 13.8 mph 20.7 mph N/A   Clear
8:55 AM 44.6 °F 38.8 °F 39.2 °F 81% 29.87 in 10.0 mi NNW 11.5 mph 19.6 mph N/A   Scattered Clouds
9:35 AM 44.6 °F 40.2 °F 41.0 °F 87% 29.89 in 5.0 mi WNW 8.1 mph - N/A   Mostly Cloudy
9:55 AM 46.4 °F 41.9 °F 42.8 °F 87% 29.91 in 7.0 mi WNW 9.2 mph - N/A   Mostly Cloudy
10:15 AM 48.2 °F - 42.8 °F 82% 29.93 in 7.0 mi NNW 10.4 mph - N/A   Overcast
10:35 AM 48.2 °F - 42.8 °F 82% 29.94 in 5.0 mi NNW 11.5 mph - N/A   Haze
10:55 AM 48.2 °F - 42.8 °F 82% 29.95 in 5.0 mi NW 11.5 mph - N/A   Haze
11:15 AM 46.4 °F 41.9 °F 42.8 °F 87% 29.95 in 4.0 mi NNW 9.2 mph - N/A   Overcast
11:35 AM 46.4 °F 41.5 °F 42.8 °F 87% 29.95 in 3.0 mi NW 10.4 mph - N/A   Overcast
11:55 AM 46.4 °F 42.9 °F 44.6 °F 93% 29.93 in 2.0 mi WNW 6.9 mph - N/A   Overcast
12:15 PM 48.2 °F - 44.6 °F 87% 29.94 in 2.5 mi WNW 6.9 mph - N/A   Overcast
12:35 PM 48.2 °F - 44.6 °F 87% 29.94 in 3.0 mi NW 10.4 mph - N/A   Overcast
12:55 PM 50.0 °F - 44.6 °F 82% 29.93 in 4.0 mi NNW 11.5 mph - N/A   Overcast
1:15 PM 50.0 °F - 44.6 °F 82% 29.93 in 5.0 mi NNW 11.5 mph - N/A   Haze
1:35 PM 50.0 °F - 42.8 °F 76% 29.93 in 7.0 mi NNW 13.8 mph 18.4 mph N/A   Overcast
1:55 PM 51.8 °F - 42.8 °F 71% 29.93 in 7.0 mi NNW 11.5 mph - N/A   Overcast
2:15 PM 51.8 °F - 41.0 °F 67% 29.93 in 7.0 mi NNW 12.7 mph 20.7 mph N/A   Overcast
2:35 PM 51.8 °F - 41.0 °F 67% 29.92 in 7.0 mi NNW 11.5 mph 17.3 mph N/A   Overcast
2:55 PM 51.8 °F - 39.2 °F 62% 29.92 in 10.0 mi NNW 11.5 mph 17.3 mph N/A   Overcast
3:15 PM 51.8 °F - 37.4 °F 58% 29.92 in 10.0 mi North 11.5 mph - N/A   Overcast
3:35 PM 51.8 °F - 37.4 °F 58% 29.93 in 10.0 mi North 15.0 mph - N/A   Overcast
3:55 PM 51.8 °F - 35.6 °F 54% 29.93 in 10.0 mi North 11.5 mph 20.7 mph N/A   Mostly Cloudy
4:15 PM 51.8 °F - 33.8 °F 50% 29.92 in 10.0 mi NNW 12.7 mph 18.4 mph N/A   Mostly Cloudy
4:35 PM 51.8 °F - 33.8 °F 50% 29.92 in 10.0 mi North 16.1 mph - N/A   Scattered Clouds
4:55 PM 51.8 °F - 33.8 °F 50% 29.93 in 10.0 mi North 13.8 mph 18.4 mph N/A   Clear
5:15 PM 50.0 °F - 32.0 °F 50% 29.95 in 10.0 mi North 12.7 mph 18.4 mph N/A   Clear
5:35 PM 48.2 °F - 32.0 °F 54% 29.96 in 10.0 mi North 11.5 mph - N/A   Clear
5:55 PM 46.4 °F 41.9 °F 32.0 °F 57% 29.97 in 10.0 mi North 9.2 mph - N/A   Clear
6:15 PM 46.4 °F 41.9 °F 32.0 °F 57% 29.98 in 10.0 mi North 9.2 mph - N/A   Clear
6:35 PM 46.4 °F 42.4 °F 32.0 °F 57% 29.98 in 10.0 mi North 8.1 mph - N/A   Clear
6:55 PM 44.6 °F 39.2 °F 30.2 °F 57% 29.99 in 10.0 mi North 10.4 mph - N/A   Clear
7:15 PM 44.6 °F 39.2 °F 30.2 °F 57% 30.00 in 10.0 mi North 10.4 mph 17.3 mph N/A   Clear
7:35 PM 42.8 °F 35.1 °F 28.4 °F 57% 30.01 in 10.0 mi North 16.1 mph 20.7 mph N/A   Clear
7:55 PM 42.8 °F 34.0 °F 23.0 °F 46% 30.02 in 10.0 mi North 20.7 mph 25.3 mph N/A   Clear
8:15 PM 41.0 °F 33.1 °F 19.4 °F 42% 30.03 in 10.0 mi North 15.0 mph 20.7 mph N/A   Clear
8:35 PM 41.0 °F 33.9 °F 19.4 °F 42% 30.05 in 10.0 mi North 12.7 mph 24.2 mph N/A   Clear
8:55 PM 39.2 °F 30.5 °F 17.6 °F 42% 30.06 in 10.0 mi North 16.1 mph 23.0 mph N/A   Clear
9:15 PM 37.4 °F 28.2 °F 17.6 °F 45% 30.07 in 10.0 mi North 16.1 mph 21.9 mph N/A   Clear
9:35 PM 37.4 °F 28.2 °F 15.8 °F 41% 30.07 in 10.0 mi North 16.1 mph 25.3 mph N/A   Clear
9:55 PM 37.4 °F 27.5 °F 14.0 °F 38% 30.08 in 10.0 mi North 18.4 mph 24.2 mph N/A   Clear
10:35 PM 35.6 °F 24.8 °F 14.0 °F 41% 30.10 in 10.0 mi NNW 19.6 mph 26.5 mph N/A   Clear
10:55 PM 35.6 °F 25.2 °F 14.0 °F 41% 30.10 in 10.0 mi NNW 18.4 mph 24.2 mph N/A   Clear
11:15 PM 35.6 °F 25.2 °F 12.2 °F 38% 30.12 in 10.0 mi North 18.4 mph 29.9 mph N/A   Scattered Clouds
11:35 PM 35.6 °F 25.5 °F 12.2 °F 38% 30.13 in 10.0 mi NNW 17.3 mph 25.3 mph N/A   Scattered Clouds
11:55 PM 35.6 °F 26.2 °F 12.2 °F 38% 30.13 in 10.0 mi NNW 15.0 mph 27.6 mph N/A   Mostly Cloudy